CST,Max TemperatureF,Mean TemperatureF,Min TemperatureF,Max Dew PointF,MeanDew PointF,Min DewpointF,Max Humidity, Mean Humidity, Min Humidity, Max Sea Level PressureIn, Mean Sea Level PressureIn, Min Sea Level PressureIn, Max VisibilityMiles, Mean VisibilityMiles, Min VisibilityMiles, Max Wind SpeedMPH, Mean Wind SpeedMPH, Max Gust SpeedMPH,PrecipitationIn, CloudCover, Events, WindDirDegrees
2011-11-1,62,46,30,46,39,31,100,79,51,30.08,29.98,29.89,10,10,10,13,6,20,0.00,4,,160
2011-11-2,48,42,35,45,41,36,100,92,76,30.19,30.09,29.94,10,9,3,17,7,29,0.01,6,Rain,347
2011-11-3,50,36,23,39,31,23,100,86,40,30.29,30.23,30.16,10,10,10,10,4,,0.00,2,,357
2011-11-4,52,33,15,39,22,16,100,94,44,30.38,30.31,30.21,10,4,1,9,1,,0.00,0,,136
2011-11-5,55,39,23,45,36,23,100,80,54,30.21,30.08,29.91,10,10,9,16,9,25,0.00,1,,138
2011-11-6,59,52,43,48,43,32,92,74,55,30.04,29.87,29.78,10,10,7,17,13,28,0.00,3,,195
2011-11-7,57,44,30,33,26,18,89,59,21,30.25,30.18,30.07,10,10,10,14,6,22,0.00,3,,242
2011-11-8,41,39,37,41,39,31,100,97,73,30.21,30.13,30.06,10,9,4,9,3,,0.00,6,Rain,35
2011-11-9,39,36,32,39,35,27,100,98,75,30.04,29.93,29.82,10,7,0,21,10,28,0.23,7,Fog-Rain-Snow,338
2011-11-10,37,34,30,34,31,27,100,92,70,30.03,29.94,29.88,10,8,2,21,12,23,0.02,7,Snow,283
2011-11-11,41,32,22,31,26,22,99,78,51,30.01,29.82,29.67,10,10,10,13,5,18,0.06,2,,186
2011-11-12,51,40,28,39,35,29,99,75,55,29.68,29.58,29.37,10,10,8,12,6,,0.01,0,,159
2011-11-13,55,49,40,52,42,32,94,80,64,29.55,29.33,29.23,10,10,3,17,7,21,0.00,5,,231
2011-11-14,55,42,28,39,33,25,99,70,49,29.68,29.56,29.47,10,10,10,18,7,25,0.00,2,,216
2011-11-15,55,40,25,34,28,19,95,59,44,29.89,29.70,29.62,10,10,10,17,7,24,0.00,2,Rain,233
2011-11-16,39,32,24,19,15,12,70,55,38,30.11,30.04,29.89,10,10,10,21,12,28,0.00,1,,274
2011-11-17,32,24,15,16,12,9,93,69,40,30.19,30.15,30.07,10,10,10,17,9,20,0.00,2,,259
2011-11-18,48,37,26,28,24,16,93,63,43,30.03,29.83,29.73,10,10,10,20,11,25,0.00,2,,175
2011-11-19,44,36,28,39,36,28,100,92,53,30.00,29.75,29.68,10,7,3,14,5,21,0.12,8,Rain,344
2011-11-20,33,30,28,34,31,26,100,96,75,30.37,30.21,30.01,10,10,10,15,9,21,0.00,8,,320
2011-11-21,37,29,21,31,26,21,100,95,75,30.39,30.31,30.25,10,6,1,8,4,,0.00,3,,104
2011-11-22,44,32,21,36,27,21,100,94,61,30.29,30.16,30.00,10,7,1,7,2,,0.00,4,,7
2011-11-23,41,30,19,39,28,19,100,99,93,30.20,30.14,30.11,10,4,0,12,5,,0.00,3,Fog,261
2011-11-24,52,46,39,46,43,39,100,92,70,30.12,30.01,29.83,10,10,5,14,8,23,0.00,5,,193
2011-11-25,52,48,45,48,45,41,100,87,67,29.82,29.79,29.76,10,10,10,12,8,26,0.00,5,,173
2011-11-26,51,43,35,52,46,36,100,100,99,29.90,29.78,29.71,10,8,2,18,9,26,0.24,7,Rain,252
2011-11-27,36,32,29,36,30,25,100,88,75,30.20,30.06,29.91,10,10,10,17,13,29,0.00,8,,324
2011-11-28,37,30,24,30,25,23,100,85,60,30.21,30.15,30.07,10,10,10,12,4,,0.00,5,,276
2011-11-29,37,27,17,29,21,16,100,80,45,30.22,30.16,30.10,10,10,10,18,8,24,0.00,1,,323
2011-11-30,44,28,11,23,13,10,100,57,25,30.09,30.04,29.96,10,10,10,10,4,,0.00,4,,212